Weather History for Kansas City International, MO

Change the Weather History Date:

Monday, August 13, 2012

  Actual Average Record
Temperature  
Mean Temperature 68 °F 78 °F  
Max Temperature 75 °F 88 °F 110 °F (1936)
Min Temperature 61 °F 68 °F 54 °F (1992)
Degree Days  
Heating Degree Days 0 0  
Month to date heating degree days 0 0  
Since 1 June heating degree days 9 9  
Since 1 July heating degree days 0 0  
Cooling Degree Days 3 13  
Month to date cooling degree days 186 170  
Year to date cooling degree days 1474 966  
Since 1 June cooling degree days 1205 850  
Growing Degree Days 19 (Base 50)    
Moisture  
Dew Point 58 °F    
Average Humidity 69    
Maximum Humidity 84    
Minimum Humidity 53    
Precipitation  
Precipitation T in 0.12 in 2.71 in (2005)
Month to date precipitation 0.64 1.56  
Year to date precipitation 14.27 25.07  
Snow  
Snow 0.00 in 0.00 in 0.00 in ()
Month to date snowfall 0.0 0.0  
Since 1 June snowfall 0.0 0.0  
Since 1 July snowfall 0.0 0.0  
Snow Depth 0.00 in    
Sea Level Pressure  
Sea Level Pressure 29.98 in    
Wind  
Wind Speed 9 mph (NW)    
Max Wind Speed 20 mph    
Max Gust Speed 25 mph    
Visibility 10 miles    
Events Rain    
T = Trace of Precipitation, MM = Missing Value Source: NWS Daily Summary

Daily Weather History Graph

Daily Weather History Graph

Search for Another Location

Airport:

Trip Planner

Search our weather history database for the weather conditions in past years. The results will help you decide how hot, cold, wet, or windy it might be!

Date:

Astronomy

Aug. 13, 2012 Rise Set
Actual Time 6:30 AM CDT 8:16 PM CDT
Civil Twilight 6:01 AM CDT 8:44 PM CDT
Nautical Twilight 5:26 AM CDT 9:19 PM CDT
Astronomical Twilight 4:49 AM CDT 9:56 PM CDT
Moon 2:35 AM CDT (8/13) 5:28 PM CDT (8/13)
Length of Visible Light 14h 43m
Length of Day
13h 45m
Waning Crescent, 16% of the Moon is Illuminated
Aug 13
Waning Crescent
Aug 17
New
Aug 24
First Quarter
Aug 31
Full
Sep 8
Last Quarter

Hourly Weather History & Observations

Time (CDT) Temp. Dew Point Humidity Pressure Visibility Wind Dir Wind Speed Gust Speed Precip Events Conditions
12:53 AM 69.1 °F 59.0 °F 70% 29.89 in 10.0 mi NW 8.1 mph - N/A   Clear
1:53 AM 66.9 °F 59.0 °F 76% 29.88 in 10.0 mi NW 8.1 mph - N/A   Clear
2:53 AM 64.9 °F 57.9 °F 78% 29.89 in 10.0 mi NW 8.1 mph - N/A   Clear
3:53 AM 64.0 °F 57.0 °F 78% 29.89 in 10.0 mi NW 8.1 mph - N/A   Clear
4:53 AM 64.0 °F 57.9 °F 80% 29.91 in 10.0 mi WNW 9.2 mph - N/A   Mostly Cloudy
5:17 AM 64.4 °F 57.2 °F 77% 29.95 in 10.0 mi WNW 11.5 mph - N/A   Overcast
5:49 AM 64.4 °F 59.0 °F 83% 29.95 in 10.0 mi NW 12.7 mph - N/A   Overcast
5:53 AM 64.9 °F 59.0 °F 81% 29.92 in 10.0 mi NW 10.4 mph - N/A   Overcast
6:18 AM 66.2 °F 60.8 °F 83% 29.96 in 10.0 mi NW 11.5 mph - N/A   Overcast
6:53 AM 66.0 °F 61.0 °F 84% 29.94 in 10.0 mi NNW 11.5 mph - 0.00 in Rain Light Rain
7:53 AM 66.9 °F 60.1 °F 79% 29.95 in 10.0 mi NNW 15.0 mph 21.9 mph 0.00 in   Overcast
8:53 AM 66.9 °F 60.1 °F 79% 29.98 in 10.0 mi NNW 11.5 mph 19.6 mph N/A   Overcast
9:53 AM 66.9 °F 59.0 °F 76% 30.00 in 10.0 mi NNW 11.5 mph - N/A   Overcast
10:53 AM 69.1 °F 59.0 °F 70% 30.03 in 10.0 mi North 13.8 mph - N/A   Overcast
11:53 AM 69.1 °F 59.0 °F 70% 30.04 in 10.0 mi North 17.3 mph - N/A   Overcast
12:53 PM 70.0 °F 57.9 °F 65% 30.04 in 10.0 mi North 15.0 mph - N/A   Overcast
1:53 PM 73.0 °F 57.9 °F 59% 30.04 in 10.0 mi North 11.5 mph - N/A   Overcast
2:01 PM 71.6 °F 57.2 °F 60% 30.06 in 10.0 mi North 8.1 mph - N/A   Overcast
2:53 PM 73.9 °F 57.0 °F 55% 30.03 in 10.0 mi North 12.7 mph - N/A   Mostly Cloudy
3:53 PM 73.9 °F 57.9 °F 57% 30.02 in 10.0 mi NW 9.2 mph - N/A   Overcast
4:53 PM 73.0 °F 57.0 °F 57% 30.02 in 10.0 mi North 11.5 mph - N/A   Overcast
5:53 PM 73.0 °F 57.0 °F 57% 30.02 in 10.0 mi North 9.2 mph - N/A   Mostly Cloudy
6:53 PM 73.0 °F 55.9 °F 55% 30.02 in 10.0 mi NNW 8.1 mph - N/A   Scattered Clouds
7:53 PM 72.0 °F 57.0 °F 59% 30.02 in 10.0 mi Calm Calm - N/A   Scattered Clouds
8:53 PM 69.1 °F 55.9 °F 63% 30.01 in 10.0 mi SW 3.5 mph - N/A   Partly Cloudy
9:53 PM 64.9 °F 55.9 °F 73% 30.03 in 10.0 mi SW 4.6 mph - N/A   Clear
10:53 PM 63.0 °F 55.9 °F 78% 30.03 in 10.0 mi South 3.5 mph - N/A   Partly Cloudy
11:53 PM 61.0 °F 55.9 °F 83% 30.04 in 10.0 mi WSW 6.9 mph - N/A   Partly Cloudy